Terug naar catalogus

COSMOS 797

ActiefMilitairLEO
NORAD 8613·PAYLOAD·🇷🇺 Russia

Gelanceerd Jan 28, 1976 vanaf Plesetsk Cosmodrome

Loading…

Volgende Passages (komende 24 uur)

TLE

VersSource: Space-Track

Epoch: Sep 14, 2026, 15:30 UTC

1 08613U 76008G   26257.64613488 -.00000007  00000-0  63418-4 0  9995
2 08613  74.0555 308.1573 0032443 235.1168 296.0226 12.40689677293107

Volg COSMOS 797 in realtime met AllMySat

Download on the App Store